EHI
1 1 2 2 1 0 0 0 0 0 0 0 0 0 0 0 0 1 2 4 5 7 7 7 8 9 7 5 3 3 3 1 0 0 0 0 0 1 1 1 1 0 0
2 1 1 1 0 0 0 0 0 0 0 0 0 0 0 0 0 0 1 2 5 8 9 9 9 10 9 5 3 3 3 2 1 0 0 0 0 0 1 2 2 1 0
2 1 0 0 0 0 0 0 0 0 0 0 0 0 0 0 0 0 0 1 4 6 9 11 11 11 10 7 4 4 5 4 3 2 0 0 0 0 1 2 3 2 1
1 0 0 0 0 0 0 0 0 0 0 0 0 0 0 0 0 0 0 1 2 3 5 8 10 10 10 8 7 7 8 8 7 5 2 0 0 0 1 2 2 2 2
1 1 0 0 0 0 1 1 0 0 0 0 0 0 0 0 0 0 0 1 2 1 2 4 7 8 8 8 9 10 11 11 11 9 5 2 1 2 1 1 1 1 2
2 2 1 0 0 0 1 1 0 0 0 0 0 0 0 0 0 0 1 3 3 3 2 3 5 6 7 8 9 11 12 12 12 11 9 6 4 3 2 0 0 0 1
4 3 2 0 0 1 1 1 0 0 0 0 0 0 0 0 0 0 1 3 4 3 3 3 4 4 5 5 6 9 10 10 10 9 9 8 5 3 2 0 0 0 0
5 6 4 1 0 1 1 1 1 0 0 0 0 0 0 0 0 0 0 1 2 3 3 3 2 2 2 2 2 4 6 7 7 7 6 5 4 3 2 1 1 0 0
7 7 5 1 0 1 1 2 2 1 0 0 0 0 0 0 0 0 0 0 1 1 2 2 1 0 0 0 0 1 2 3 4 4 3 2 2 1 2 2 1 1 1
7 6 4 1 0 0 0 1 2 1 0 0 0 0 0 0 0 0 0 0 0 0 1 1 0 0 0 0 0 0 0 1 1 1 1 1 0 0 1 1 1 1 2
5 5 4 2 1 0 0 0 1 1 0 0 0 0 0 0 0 0 0 0 0 0 0 0 0 0 0 0 0 0 0 0 0 0 1 1 0 0 0 0 0 1 1
6 6 5 3 2 1 0 0 0 0 0 0 0 0 0 0 0 0 0 0 0 0 0 0 0 0 0 0 0 0 0 0 0 0 1 1 0 0 0 0 1 1 1
9 8 7 5 3 2 1 0 0 0 0 0 0 0 0 0 0 0 0 0 0 0 0 0 0 0 0 0 1 0 0 0 0 0 0 0 0 0 0 0 1 2 2
12 11 8 5 4 3 2 1 1 0 0 0 0 0 0 0 0 0 0 0 0 0 0 0 0 0 0 0 0 0 0 0 0 0 0 0 0 0 0 0 1 2 2
13 12 8 5 3 3 3 4 3 1 1 2 1 1 0 0 0 0 0 0 0 0 0 0 0 0 0 0 0 0 0 0 0 0 0 0 0 0 0 0 1 1 2
12 11 8 4 3 4 5 7 5 3 3 3 2 2 1 0 0 0 0 0 0 0 0 0 0 0 0 0 0 0 0 0 0 0 0 0 0 0 0 0 0 0 1
10 9 7 5 4 5 7 9 7 5 4 3 2 1 1 1 1 1 1 1 1 1 1 1 1 0 0 0 0 0 0 0 0 1 1 0 0 0 0 0 0 0 0
8 7 6 6 6 7 8 9 8 7 5 2 0 0 0 0 1 1 2 2 2 2 3 2 1 0 0 0 0 0 0 0 1 2 2 1 1 0 0 0 0 0 0
7 6 6 6 6 6 7 8 8 8 5 2 0 0 0 0 0 1 2 3 3 3 3 2 1 0 1 1 0 0 0 0 1 2 2 2 1 0 0 0 0 0 0
7 6 4 4 4 5 6 6 6 6 4 1 0 0 0 0 0 0 1 3 3 3 3 3 1 1 1 2 1 1 0 0 0 1 1 1 1 0 0 0 0 0 0
7 6 5 5 4 4 3 4 4 4 3 1 0 0 1 0 0 0 1 2 3 3 3 3 2 1 1 2 2 2 1 1 0 0 0 0 0 0 0 0 0 0 0
10 8 7 7 6 3 2 2 3 3 3 1 0 0 0 0 1 1 1 1 1 2 3 3 3 2 1 1 2 2 2 2 1 0 0 0 0 0 0 0 0 0 0
12 10 8 8 7 4 2 1 1 2 3 2 1 0 0 1 2 2 2 1 1 1 2 3 3 3 2 1 1 1 1 2 1 0 0 0 0 0 0 0 0 0 0
13 10 8 8 7 5 3 1 0 1 2 2 2 1 1 1 2 2 1 1 1 1 2 2 2 2 2 1 0 0 1 2 1 1 1 1 0 0 0 0 0 0 0
13 10 9 9 8 6 4 1 0 0 1 1 1 1 1 1 1 1 0 0 0 1 1 1 1 1 1 1 0 0 1 1 1 1 2 2 1 1 0 0 0 0 0
14 12 11 11 10 8 6 2 1 0 0 0 0 1 0 0 0 0 0 0 0 0 0 0 0 0 0 0 0 0 0 1 2 2 3 3 2 2 1 0 0 0 0
Wind_Speed
2 1 1 1 1 1 1 1 1 1 2 3 4 4 4 4 4 3 3 7 7 7 7 8 8 9 9 9 9 9 8 8 8 8 8 8 8 8 7 8 9 9 9
2 2 2 1 1 1 1 2 2 1 1 2 3 3 4 4 4 4 3 4 7 7 7 7 7 8 8 8 8 8 8 8 7 8 8 7 7 7 7 7 8 9 9
2 2 2 1 1 1 1 1 1 1 1 2 2 2 3 3 4 4 4 3 3 5 6 7 7 7 7 8 8 8 7 7 7 7 7 7 7 6 6 7 7 7 8
2 2 2 1 1 1 1 1 1 1 1 1 1 1 2 2 4 4 4 4 3 3 4 7 7 7 7 7 8 8 7 7 7 7 7 7 6 6 5 6 7 7 7
2 3 2 1 1 2 1 1 1 1 1 1 1 1 1 2 3 4 5 5 4 4 3 5 7 6 6 7 7 8 7 7 7 6 6 6 7 6 5 5 7 7 8
2 3 2 1 2 2 1 1 2 1 1 1 1 0 1 2 2 3 4 4 4 5 4 4 3 4 6 6 6 7 7 7 6 6 6 5 5 5 5 6 6 7 8
2 2 2 1 2 2 1 1 2 1 1 1 2 2 2 1 1 2 3 3 4 4 4 4 3 2 2 5 5 6 7 8 7 6 6 6 6 6 6 6 6 6 8
2 3 2 2 2 2 1 1 2 1 0 1 2 1 2 3 2 0 1 3 3 3 3 5 4 3 2 2 3 5 6 6 7 6 6 6 7 6 7 7 6 6 7
2 2 3 2 2 2 1 1 1 2 1 0 1 3 2 2 2 2 1 1 1 2 2 2 3 3 3 2 2 3 4 4 5 6 6 5 5 5 5 6 6 5 5
2 3 3 3 2 1 1 0 1 1 2 0 1 0 2 3 2 1 2 1 1 1 2 2 3 3 3 2 2 3 4 5 4 6 6 6 5 5 5 5 6 5 5
1 2 2 2 2 2 1 1 1 1 1 1 1 0 0 1 1 2 1 2 1 1 1 1 2 2 3 3 3 3 4 4 4 4 5 5 5 5 5 5 5 6 5
1 1 2 2 2 2 2 1 1 1 1 1 1 1 1 1 1 2 2 1 1 1 1 0 1 1 2 3 4 5 5 5 4 4 4 5 5 4 4 4 5 5 5
1 2 2 2 2 1 1 1 1 1 1 1 1 1 1 1 2 2 2 1 0 1 1 1 1 1 2 2 2 3 4 4 4 4 4 4 5 5 5 4 4 4 5
3 2 2 2 2 2 2 2 1 1 1 1 1 0 0 0 1 2 2 3 1 1 1 2 1 1 1 1 2 3 2 3 3 4 4 4 5 5 5 5 4 4 4
3 3 3 2 2 2 2 2 1 1 1 1 1 1 0 0 0 1 2 3 3 2 2 2 1 2 1 1 3 3 2 4 4 3 3 4 4 5 5 5 4 4 4
3 4 3 3 2 2 2 2 1 1 1 0 1 1 0 0 1 0 1 1 2 3 2 2 2 2 1 2 3 3 3 5 5 5 4 4 4 4 5 6 5 5 5
4 4 3 3 2 2 2 2 2 1 1 0 0 1 0 0 0 1 0 1 1 2 2 2 1 1 1 1 1 2 2 3 3 6 5 5 5 5 5 5 6 6 6
4 4 3 3 3 2 2 3 2 1 1 1 1 0 0 0 1 1 0 0 0 1 2 1 1 1 1 2 1 1 1 2 2 4 6 6 5 5 5 6 6 6 6
3 3 3 3 2 2 2 2 2 1 1 1 1 1 1 1 0 0 0 0 0 0 1 1 1 1 1 1 1 1 1 1 2 3 4 5 5 5 5 6 6 6 6
4 3 3 2 3 2 2 2 2 2 1 1 1 1 1 2 2 2 1 1 0 1 1 1 0 1 1 1 0 1 1 1 2 2 2 3 4 5 6 6 6 6 6
4 3 3 2 2 2 2 3 3 2 2 1 1 1 2 2 2 2 1 1 1 1 1 0 1 1 1 1 1 1 1 2 2 2 1 2 2 2 3 4 5 6 6
3 3 3 3 3 2 3 4 4 3 2 2 2 2 2 1 1 2 2 2 3 2 2 2 1 2 3 3 2 2 1 1 3 2 1 3 1 3 3 3 5 6 6
3 3 3 3 3 3 4 4 5 3 3 3 3 3 2 2 1 1 1 1 2 3 4 4 3 4 4 4 3 2 2 3 4 3 1 3 2 3 3 4 6 6 5
3 3 3 4 3 3 4 4 4 3 3 3 3 3 3 2 2 2 2 1 2 2 3 3 4 5 5 4 4 4 4 3 2 2 2 2 3 3 3 2 5 5 5
3 3 3 4 4 4 5 5 4 2 2 3 3 2 3 2 3 2 2 2 2 3 4 3 4 4 5 5 3 1 1 1 2 3 1 2 2 2 2 3 3 5 5
3 3 2 3 4 4 6 6 5 2 2 2 1 2 4 4 3 3 3 3 3 4 3 3 4 4 4 4 4 4 4 3 2 2 2 2 2 0 2 3 2 2 2
Wind_Direction
148 156 160 165 186 174 171 177 183 172 173 187 187 182 180 175 177 173 182 183 180 181 187 194 200 199 194 194 195 198 196 199 199 199 202 208 211 212 214 215 213 213 215
146 140 131 138 160 174 175 162 167 162 169 171 176 178 177 173 182 179 181 186 186 187 189 192 199 196 191 191 195 198 203 204 204 203 204 206 208 212 215 216 218 218 217
134 133 131 136 165 163 143 116 101 110 132 143 158 169 164 171 175 177 177 178 190 195 192 193 200 197 190 194 199 203 206 204 202 201 204 208 208 212 217 221 223 224 222
131 127 126 144 159 122 119 123 110 106 108 125 156 183 172 175 182 182 180 182 186 193 198 195 203 202 201 205 209 211 211 210 204 203 206 208 210 214 222 229 230 228 225
126 122 123 128 115 103 95 129 100 119 124 132 174 191 197 195 192 187 187 190 189 187 191 202 205 206 209 216 217 215 211 209 205 201 201 207 214 220 226 236 235 231 225
125 122 123 116 100 90 78 88 97 92 134 167 152 120 237 214 189 190 195 193 192 192 196 203 206 218 216 219 218 215 210 206 207 205 205 208 218 226 233 244 247 237 231
135 130 124 113 104 103 117 117 114 93 50 65 65 19 351 312 197 196 193 186 193 195 189 196 201 206 226 222 222 219 217 214 213 213 213 219 226 232 236 241 247 246 236
128 137 124 125 114 107 83 75 102 96 34 92 121 88 6 351 342 252 185 187 201 192 192 196 193 201 209 211 223 220 222 216 216 219 222 227 231 235 235 237 243 246 242
133 122 122 119 105 117 127 120 130 133 156 315 133 139 146 228 302 332 320 174 180 186 200 196 195 198 196 204 221 222 210 216 221 222 224 228 235 241 240 242 243 238 239
137 135 136 125 126 116 104 109 116 133 136 176 324 94 159 168 162 311 340 347 205 188 210 201 191 187 188 189 205 205 214 225 234 233 233 237 242 244 244 243 240 238 233
157 151 147 150 142 131 133 124 89 110 138 155 162 166 63 65 116 141 270 319 339 302 233 196 181 184 190 192 203 206 207 223 236 242 237 239 243 245 247 245 240 237 235
179 160 149 158 147 145 159 159 145 114 121 122 129 131 145 152 182 150 179 234 270 290 284 219 174 194 199 195 209 206 208 214 223 235 237 236 237 243 249 250 244 239 236
180 191 165 156 158 168 158 142 120 109 115 116 139 167 161 181 175 158 151 178 231 311 339 327 257 225 208 187 203 194 206 211 217 224 234 234 231 237 242 245 243 237 230
188 180 167 160 165 167 155 140 140 157 129 135 129 131 117 242 174 159 161 150 125 340 342 297 317 275 245 203 200 183 206 203 213 222 229 237 237 238 238 238 242 238 230
175 164 165 169 175 174 170 155 150 185 148 149 153 124 110 298 30 175 152 151 154 171 258 266 274 281 265 230 195 194 210 218 218 219 225 234 241 246 241 231 234 234 228
169 164 167 176 176 170 161 154 158 179 126 153 158 108 70 344 350 4 134 145 153 159 202 250 242 250 249 244 215 207 217 226 226 229 234 239 242 248 242 231 231 233 231
162 167 173 176 178 170 156 143 156 147 135 316 305 138 183 332 4 344 18 96 119 137 168 270 275 288 278 280 283 250 229 218 229 230 229 237 244 246 245 239 236 234 235
163 163 164 162 169 167 165 162 170 158 168 212 239 133 257 57 38 358 32 58 130 155 160 225 304 323 280 252 251 248 243 225 231 241 235 234 239 243 245 244 244 239 234
157 153 155 161 169 174 174 171 170 182 193 207 204 191 224 128 346 310 358 27 242 94 131 162 270 294 296 300 331 308 299 289 257 263 247 237 239 245 251 247 242 241 238
158 161 160 166 173 173 167 164 161 179 197 211 212 213 219 184 204 214 212 221 178 90 92 119 275 299 290 289 83 311 313 294 275 281 275 255 247 247 253 252 242 240 242
167 163 153 170 182 174 173 167 173 178 186 202 257 244 236 208 194 207 204 193 159 149 149 159 252 296 286 297 256 246 263 285 282 269 283 273 265 256 252 254 245 239 239
164 160 167 180 184 194 179 175 176 190 197 205 231 252 262 255 253 247 225 198 182 183 199 204 233 241 256 249 238 227 236 274 284 271 228 271 244 253 253 242 245 243 239
171 177 182 182 193 205 196 191 188 189 210 220 223 234 255 257 246 234 257 268 251 239 215 201 217 238 243 242 230 240 231 219 236 247 199 268 266 260 259 253 241 246 244
176 189 193 192 193 208 201 201 202 200 217 228 226 218 222 243 244 219 214 247 267 267 252 233 223 237 239 232 216 216 221 236 270 264 185 236 262 261 273 262 245 244 247
186 197 198 194 198 216 208 209 196 189 224 249 243 219 208 217 246 216 188 230 282 293 291 278 265 266 266 253 222 189 205 182 268 272 225 196 249 269 276 266 254 249 253
191 189 205 210 203 211 211 207 191 183 214 243 258 238 224 223 232 204 190 204 241 269 286 303 302 301 292 282 251 206 198 201 229 260 240 192 224 211 299 280 265 260 258